CW2377 Weather Reports


Display with metric or nautical units.
time (UTC)temp
F
wind
direction
speed
MPH
gust
MPH
rain 1hr
in
rain 24hr
in
rain mn
in
humidity
%
barometer
mb
20260902005204 84 120 0.0 0.0 0.00 0.00 0.00 76 1013.1
20260902004704 84 120 0.0 0.0 0.00 0.00 0.00 75 1013.0
20260902004203 84 120 0.0 0.0 0.00 0.00 0.00 74 1012.9
20260902003704 85 120 0.0 0.0 0.00 0.00 0.00 74 1012.9
20260902003203 85 120 0.0 0.0 0.00 0.00 0.00 74 1012.9
20260902002704 85 120 0.0 0.0 0.00 0.00 0.00 73 1012.9
20260902002203 86 120 0.0 0.0 0.00 0.00 0.00 72 1012.9
20260902001204 87 120 0.0 0.0 0.00 0.00 0.00 70 1012.8
20260902000704 87 120 0.0 0.0 0.00 0.00 0.00 69 1012.9
20260901235704 87 120 0.0 0.0 0.00 0.00 0.00 68 1012.9
20260901235203 88 120 0.0 0.0 0.00 0.00 0.00 67 1012.9
20260901234203 88 120 0.0 0.0 0.00 0.00 0.00 66 1012.9
20260901233704 88 120 0.0 0.0 0.00 0.00 0.00 66 1012.8
20260901233204 89 120 0.0 0.0 0.00 0.00 0.00 65 1012.9
20260901232703 89 120 0.0 0.0 0.00 0.00 0.00 65 1012.9
20260901232203 89 120 0.0 0.0 0.00 0.00 0.00 64 1013.0
20260901231703 89 120 0.0 0.0 0.00 0.00 0.00 65 1013.0
20260901231204 89 120 0.0 0.0 0.00 0.00 0.00 64 1013.0
20260901230703 89 120 0.0 0.0 0.00 0.00 0.00 64 1012.9
20260901230203 90 120 0.0 0.0 0.00 0.00 0.00 64 1012.9
20260901225703 90 120 0.0 0.0 0.00 0.00 0.00 63 1013.0
20260901225203 90 120 0.0 0.0 0.00 0.00 0.00 63 1013.0
20260901224704 90 120 0.0 0.0 0.00 0.00 0.00 61 1013.1
20260901224203 90 120 0.0 0.0 0.00 0.00 0.00 62 1013.1
20260901223703 90 120 0.0 0.0 0.00 0.00 0.00 62 1013.2
20260901223204 90 120 0.0 0.0 0.00 0.00 0.00 61 1013.2
20260901222703 90 120 0.0 0.0 0.00 0.00 0.00 61 1013.2
20260901222204 90 120 0.0 0.0 0.00 0.00 0.00 61 1013.3
20260901221704 90 120 0.0 0.0 0.00 0.00 0.00 61 1013.3
20260901221204 90 120 0.0 0.0 0.00 0.00 0.00 62 1013.3
20260901220703 91 120 0.0 0.0 0.00 0.00 0.00 62 1013.2
20260901220204 91 120 0.0 0.0 0.00 0.00 0.00 61 1013.1
20260901215203 91 120 0.0 0.0 0.00 0.00 0.00 61 1013.1
20260901214204 91 120 0.0 0.0 0.00 0.00 0.00 62 1013.1
20260901213704 92 120 0.0 0.0 0.00 0.00 0.00 61 1013.1
20260901213203 92 120 0.0 0.0 0.00 0.00 0.00 61 1013.1
20260901212704 92 120 0.0 0.0 0.00 0.00 0.00 59 1013.1
20260901212204 93 120 0.0 0.0 0.00 0.00 0.00 57 1013.2
20260901211704 93 120 0.0 0.0 0.00 0.00 0.00 57 1013.2
20260901211205 94 120 0.0 0.0 0.00 0.01 0.00 56 1013.2
20260901210703 94 120 0.0 0.0 0.00 0.01 0.00 57 1013.2
20260901210204 94 120 0.0 0.0 0.00 0.01 0.00 56 1013.3
20260901205704 94 120 0.0 0.0 0.00 0.01 0.00 56 1013.3
20260901205204 95 120 0.0 0.0 0.00 0.01 0.00 54 1013.4
20260901204704 95 120 0.0 0.0 0.00 0.01 0.00 55 1013.4
20260901204203 95 120 0.0 0.0 0.00 0.01 0.00 54 1013.4
20260901203703 95 120 0.0 0.0 0.00 0.04 0.00 56 1013.4
20260901203204 95 120 0.0 0.0 0.00 0.04 0.00 53 1013.4
20260901201704 95 120 0.0 0.0 0.00 0.12 0.00 52 1013.5
20260901201203 95 120 0.0 0.0 0.00 0.14 0.00 51 1013.5
20260901200703 95 120 0.0 0.0 0.00 0.14 0.00 50 1013.5
20260901200203 95 120 0.0 0.0 0.00 0.14 0.00 50 1013.6
20260901195704 95 120 0.0 0.0 0.00 0.14 0.00 49 1013.6
20260901195204 95 120 0.0 0.0 0.00 0.15 0.00 50 1013.7
20260901194704 95 120 0.0 0.0 0.00 0.15 0.00 51 1013.7
20260901194203 95 120 0.0 0.0 0.00 0.15 0.00 53 1013.7
20260901193203 94 120 0.0 0.0 0.00 0.16 0.00 53 1013.8
20260901192704 94 120 0.0 0.0 0.00 0.20 0.00 55 1013.7
20260901191704 94 120 0.0 0.0 0.00 0.20 0.00 57 1013.7
20260901190703 94 120 0.0 0.0 0.00 0.20 0.00 58 1013.8
20260901190203 94 120 0.0 0.0 0.00 0.20 0.00 57 1013.8
20260901185704 93 120 0.0 0.0 0.00 0.20 0.00 55 1013.8
20260901184703 94 120 0.0 0.0 0.00 0.20 0.00 57 1013.9
20260901184204 94 120 0.0 0.0 0.00 0.20 0.00 57 1013.9
20260901183703 94 120 0.0 0.0 0.00 0.20 0.00 55 1014.0
20260901183203 93 120 0.0 0.0 0.00 0.20 0.00 57 1014.0
20260901182703 93 120 0.0 0.0 0.00 0.20 0.00 57 1014.0
20260901182203 93 120 0.0 0.0 0.00 0.20 0.00 58 1014.0
20260901181703 93 120 0.0 0.0 0.00 0.20 0.00 59 1014.0
20260901181204 92 120 0.0 0.0 0.00 0.20 0.00 57 1014.0
20260901180703 92 120 0.0 0.0 0.00 0.20 0.00 58 1014.0
20260901180203 92 120 0.0 0.0 0.00 0.20 0.00 60 1014.2
20260901175704 92 120 0.0 0.0 0.00 0.20 0.00 63 1014.2
20260901175203 92 120 0.0 0.0 0.00 0.20 0.00 64 1014.3
20260901174703 91 120 0.0 0.0 0.00 0.20 0.00 65 1014.4
20260901174204 90 120 0.0 0.0 0.00 0.20 0.00 66 1014.3
20260901173704 90 120 0.0 0.0 0.00 0.20 0.00 66 1014.4
20260901173204 90 120 0.0 0.0 0.00 0.20 0.00 66 1014.4
20260901172703 90 120 0.0 0.0 0.00 0.20 0.00 67 1014.4
20260901172204 89 120 0.0 0.0 0.00 0.20 0.00 69 1014.5
20260901171703 89 120 0.0 0.0 0.00 0.20 0.00 70 1014.5
20260901171203 88 120 0.0 0.0 0.00 0.20 0.00 69 1014.5
20260901170703 87 120 0.0 0.0 0.00 0.20 0.00 71 1014.6
20260901170204 87 120 0.0 0.0 0.00 0.20 0.00 74 1014.5
20260901165704 86 120 0.0 0.0 0.00 0.20 0.00 76 1014.7
20260901165204 85 120 0.0 0.0 0.00 0.20 0.00 75 1014.7
20260901164703 85 120 0.0 0.0 0.00 0.20 0.00 76 1014.8
20260901164203 85 120 0.0 0.0 0.00 0.20 0.00 77 1014.9
20260901163703 85 120 0.0 0.0 0.00 0.20 0.00 77 1015.0
20260901163203 85 120 0.0 0.0 0.00 0.20 0.00 76 1015.0
20260901162703 85 120 0.0 0.0 0.00 0.20 0.00 76 1015.0
20260901162203 85 120 0.0 0.0 0.00 0.20 0.00 76 1015.0
20260901161703 85 120 0.0 0.0 0.00 0.20 0.00 77 1015.0
20260901161203 84 120 0.0 0.0 0.00 0.20 0.00 78 1014.9
20260901160704 84 120 0.0 0.0 0.00 0.20 0.00 77 1015.0
20260901155703 83 120 0.0 0.0 0.00 0.20 0.00 82 1014.8
20260901155204 82 120 0.0 0.0 0.00 0.20 0.00 82 1014.9
20260901154703 82 120 0.0 0.0 0.00 0.20 0.00 83 1014.9
20260901154203 82 120 0.0 0.0 0.00 0.20 0.00 83 1014.9
20260901153703 82 120 0.0 0.0 0.00 0.20 0.00 82 1014.8
20260901153204 82 120 0.0 0.0 0.00 0.20 0.00 82 1014.7
20260901152204 81 120 0.0 0.0 0.00 0.20 0.00 83 1014.7
20260901151703 81 120 0.0 0.0 0.00 0.20 0.00 84 1014.6
20260901151203 81 120 0.0 0.0 0.00 0.20 0.00 84 1014.6
20260901150703 81 120 0.0 0.0 0.00 0.20 0.00 84 1014.6
20260901150204 81 120 0.0 0.0 0.00 0.20 0.00 84 1014.6
20260901145204 81 120 0.0 0.0 0.00 0.20 0.00 83 1014.6
20260901144703 81 120 0.0 0.0 0.00 0.20 0.00 83 1014.5
20260901144204 81 120 0.0 0.0 0.00 0.20 0.00 83 1014.5
20260901143703 81 120 0.0 0.0 0.00 0.20 0.00 82 1014.4
20260901143203 81 120 0.0 0.0 0.00 0.20 0.00 83 1014.4
20260901141204 80 120 0.0 0.0 0.00 0.20 0.00 84 1014.5
20260901140704 80 120 0.0 0.0 0.00 0.20 0.00 83 1014.5
20260901140204 80 120 0.0 0.0 0.00 0.20 0.00 85 1014.5
20260901135703 80 120 0.0 0.0 0.00 0.20 0.00 85 1014.5
20260901135204 79 120 0.0 0.0 0.00 0.20 0.00 86 1014.5
20260901134203 79 120 0.0 0.0 0.00 0.20 0.00 86 1014.5
20260901133204 79 120 0.0 0.0 0.00 0.20 0.00 87 1014.6
20260901132703 78 120 0.0 0.0 0.00 0.20 0.00 88 1014.6
20260901132203 78 120 0.0 0.0 0.00 0.20 0.00 90 1014.5
20260901131704 78 120 0.0 0.0 0.00 0.20 0.00 90 1014.5
20260901130203 77 120 0.0 0.0 0.00 0.21 0.00 92 1014.6
20260901125704 76 120 0.0 0.0 0.00 0.21 0.00 92 1014.6
20260901125204 76 120 0.0 0.0 0.00 0.21 0.00 92 1014.5
20260901124703 76 120 0.0 0.0 0.00 0.21 0.00 93 1014.5
20260901124204 76 120 0.0 0.0 0.00 0.21 0.00 93 1014.5
20260901123704 76 120 0.0 0.0 0.00 0.21 0.00 93 1014.4
20260901122704 75 120 0.0 0.0 0.00 0.21 0.00 94 1014.3
20260901122204 75 120 0.0 0.0 0.00 0.21 0.00 94 1014.4
20260901121704 75 120 0.0 0.0 0.00 0.21 0.00 94 1014.3
20260901120703 74 120 0.0 0.0 0.00 0.22 0.00 95 1014.3
20260901120204 74 120 0.0 0.0 0.00 0.22 0.00 95 1014.2
20260901115703 74 120 0.0 0.0 0.00 0.25 0.00 95 1014.2
20260901115203 74 120 0.0 0.0 0.00 0.25 0.00 95 1014.1
20260901114703 74 120 0.0 0.0 0.00 0.26 0.00 95 1014.1
20260901114204 74 120 0.0 0.0 0.00 0.26 0.00 95 1014.0
20260901113704 74 120 0.0 0.0 0.00 0.32 0.00 95 1014.0
20260901113203 74 120 0.0 0.0 0.00 0.33 0.00 95 1014.0
20260901112703 74 120 0.0 0.0 0.00 0.36 0.00 95 1014.1
20260901112204 74 120 0.0 0.0 0.00 0.36 0.00 95 1014.0
20260901111704 74 120 0.0 0.0 0.00 0.38 0.00 95 1013.9
20260901111205 74 120 0.0 0.0 0.00 0.51 0.00 95 1013.8
20260901110703 74 120 0.0 0.0 0.00 0.53 0.00 95 1013.8
20260901110204 74 120 0.0 0.0 0.00 0.55 0.00 95 1013.7
20260901105703 74 120 0.0 0.0 0.00 0.56 0.00 95 1013.6
20260901105203 74 120 0.0 0.0 0.00 0.56 0.00 95 1013.6
20260901104704 73 120 0.0 0.0 0.00 0.56 0.00 95 1013.5
20260901104203 73 120 0.0 0.0 0.00 0.56 0.00 95 1013.5
20260901103703 74 120 0.0 0.0 0.00 0.56 0.00 95 1013.6
20260901103204 74 120 0.0 0.0 0.00 0.56 0.00 95 1013.5
20260901102204 74 120 0.0 0.0 0.00 0.56 0.00 95 1013.5
20260901101703 74 120 0.0 0.0 0.00 0.56 0.00 95 1013.4
20260901101204 74 120 0.0 0.0 0.00 0.56 0.00 95 1013.4
20260901100704 74 120 0.0 0.0 0.00 0.56 0.00 95 1013.4
20260901095704 74 120 0.0 0.0 0.00 0.56 0.00 95 1013.4
20260901095203 74 120 0.0 0.0 0.00 0.56 0.00 95 1013.4
20260901094704 74 120 0.0 0.0 0.00 0.56 0.00 95 1013.4
20260901094204 74 120 0.0 0.0 0.00 0.56 0.00 95 1013.4
20260901093703 74 120 0.0 0.0 0.00 0.56 0.00 95 1013.5
20260901093204 74 120 0.0 0.0 0.00 0.56 0.00 95 1013.4
20260901092704 74 120 0.0 0.0 0.00 0.56 0.00 95 1013.5
20260901092203 74 120 0.0 0.0 0.00 0.56 0.00 95 1013.4
20260901091704 74 120 0.0 0.0 0.00 0.56 0.00 94 1013.3
20260901091204 74 120 0.0 0.0 0.00 0.56 0.00 94 1013.3
20260901090704 74 120 0.0 0.0 0.00 0.56 0.00 94 1013.4
20260901090203 74 120 0.0 0.0 0.00 0.56 0.00 94 1013.3
20260901085703 74 120 0.0 0.0 0.00 0.56 0.00 94 1013.3
20260901085204 74 120 0.0 0.0 0.00 0.56 0.00 94 1013.3
20260901084704 74 120 0.0 0.0 0.00 0.56 0.00 94 1013.3
20260901084204 74 120 0.0 0.0 0.00 0.56 0.00 94 1013.2
20260901083704 74 120 0.0 0.0 0.00 0.56 0.00 95 1013.3
20260901083204 74 120 0.0 0.0 0.00 0.56 0.00 95 1013.2
20260901082204 74 120 0.0 0.0 0.00 0.56 0.00 94 1013.1
20260901081703 74 120 0.0 0.0 0.00 0.56 0.00 94 1013.2
20260901080703 74 120 0.0 0.0 0.00 0.56 0.00 94 1013.2
20260901080203 74 120 0.0 0.0 0.00 0.56 0.00 94 1013.2
20260901075204 74 120 0.0 0.0 0.00 0.56 0.00 94 1013.2
20260901074704 74 120 0.0 0.0 0.00 0.56 0.00 94 1013.1
20260901074203 74 120 0.0 0.0 0.00 0.56 0.00 94 1013.2
20260901073203 74 120 0.0 0.0 0.00 0.56 0.00 94 1013.2
20260901072704 74 120 0.0 0.0 0.00 0.56 0.00 94 1013.1
20260901071703 74 120 0.0 0.0 0.00 0.56 0.00 94 1013.1
20260901071203 74 120 0.0 0.0 0.00 0.56 0.00 94 1013.2
20260901070704 74 120 0.0 0.0 0.00 0.56 0.00 94 1013.1
20260901070204 74 120 0.0 0.0 0.00 0.56 0.00 94 1013.1
20260901065203 74 120 0.0 0.0 0.00 0.56 0.00 94 1013.1
20260901064704 74 120 0.0 0.0 0.00 0.56 0.00 94 1013.1
20260901064203 74 120 0.0 0.0 0.00 0.56 0.00 94 1013.1
20260901063704 74 120 0.0 0.0 0.00 0.56 0.00 94 1013.1
20260901063203 74 120 0.0 0.0 0.00 0.56 0.00 94 1013.1
20260901062704 74 120 0.0 0.0 0.00 0.56 0.00 94 1013.2
20260901062203 74 120 0.0 0.0 0.00 0.56 0.00 94 1013.1
20260901061704 74 120 0.0 0.0 0.00 0.56 0.00 94 1013.1
20260901061204 74 120 0.0 0.0 0.00 0.56 0.00 94 1013.2
20260901060203 74 120 0.0 0.0 0.00 0.56 0.00 94 1013.1
20260901055704 74 120 0.0 0.0 0.00 0.56 0.00 94 1013.2
20260901055203 74 120 0.0 0.0 0.00 0.56 0.00 94 1013.1
20260901054704 74 120 0.0 0.0 0.00 0.56 0.00 94 1013.1
20260901054203 74 120 0.0 0.0 0.00 0.56 0.00 93 1013.1
20260901053704 74 120 0.0 0.0 0.00 0.56 0.00 93 1013.1
20260901053204 74 120 0.0 0.0 0.00 0.56 0.00 93 1013.1
20260901052704 74 120 0.0 0.0 0.00 0.56 0.00 93 1013.1
20260901052204 74 120 0.0 0.0 0.00 0.56 0.00 93 1013.1
20260901051703 75 120 0.0 0.0 0.00 0.56 0.00 93 1013.1
20260901050704 75 120 0.0 0.0 0.00 0.56 0.00 93 1013.3
20260901050203 75 120 0.0 0.0 0.00 0.56 0.00 93 1013.2
20260901045204 75 120 0.0 0.0 0.00 0.56 0.56 92 1013.2
20260901044703 75 120 0.0 0.0 0.00 0.56 0.56 92 1013.2
20260901043704 75 120 0.0 0.0 0.00 0.56 0.56 92 1013.3
20260901043203 75 120 0.0 0.0 0.00 0.56 0.56 92 1013.3
20260901042703 75 120 0.0 0.0 0.00 0.56 0.56 92 1013.3
20260901042204 75 120 0.0 0.0 0.00 0.56 0.56 92 1013.3
20260901041704 76 120 0.0 0.0 0.00 0.56 0.56 91 1013.2
20260901041203 76 120 0.0 0.0 0.00 0.56 0.56 91 1013.2
20260901040703 76 120 0.0 0.0 0.00 0.56 0.56 91 1013.3
20260901040203 76 120 0.0 0.0 0.00 0.56 0.56 91 1013.3
20260901035704 76 120 0.0 0.0 0.00 0.56 0.56 91 1013.3
20260901035204 76 120 0.0 0.0 0.00 0.56 0.56 90 1013.4
20260901034703 76 120 0.0 0.0 0.00 0.56 0.56 90 1013.4
20260901034204 76 120 0.0 0.0 0.00 0.56 0.56 90 1013.4
20260901033704 76 120 0.0 0.0 0.00 0.56 0.56 90 1013.5
20260901033203 77 120 0.0 0.0 0.00 0.56 0.56 89 1013.4
20260901032704 77 120 0.0 0.0 0.00 0.56 0.56 89 1013.4
20260901032203 77 120 0.0 0.0 0.00 0.56 0.56 88 1013.4
20260901031704 77 120 0.0 0.0 0.00 0.56 0.56 88 1013.4
20260901031203 77 120 0.0 0.0 0.00 0.56 0.56 88 1013.4
20260901030704 77 120 0.0 0.0 0.00 0.57 0.56 87 1013.5
20260901030203 78 120 0.0 0.0 0.00 0.58 0.56 85 1013.5
20260901025704 78 120 0.0 0.0 0.00 0.59 0.56 85 1013.5
20260901024703 78 120 0.0 0.0 0.00 0.59 0.56 85 1013.5
20260901024204 78 120 0.0 0.0 0.00 0.59 0.56 85 1013.5
20260901023703 78 120 0.0 0.0 0.00 0.59 0.56 85 1013.4
20260901023203 79 120 0.0 0.0 0.00 0.59 0.56 85 1013.4
20260901022204 79 120 0.0 0.0 0.00 0.59 0.56 84 1013.5
20260901021704 79 120 0.0 0.0 0.00 0.59 0.56 83 1013.5
20260901021204 79 120 0.0 0.0 0.00 0.59 0.56 84 1013.4
20260901020704 79 120 0.0 0.0 0.00 0.59 0.56 85 1013.4
20260901020204 78 120 0.0 0.0 0.00 0.59 0.56 87 1013.4
20260901015703 78 120 0.0 0.0 0.00 0.59 0.56 89 1013.4
20260901015204 78 120 0.0 0.0 0.00 0.59 0.56 90 1013.3
20260901014704 78 120 0.0 0.0 0.00 0.59 0.56 90 1013.4
20260901014203 78 120 0.0 0.0 0.00 0.59 0.56 90 1013.5
20260901013704 78 120 0.0 0.0 0.00 0.59 0.56 89 1013.4
20260901013204 78 120 0.0 0.0 0.00 0.59 0.56 89 1013.4
20260901012703 78 120 0.0 0.0 0.00 0.59 0.56 88 1013.4
20260901012204 78 120 0.0 0.0 0.00 0.59 0.56 88 1013.3
20260901011704 78 120 0.0 0.0 0.00 0.59 0.56 88 1013.3
20260901011203 79 120 0.0 0.0 0.00 0.59 0.56 87 1013.2
20260901010703 79 120 0.0 0.0 0.00 0.59 0.56 86 1013.2
20260901010204 79 120 0.0 0.0 0.00 0.59 0.56 86 1013.2
20260901005704 79 120 0.0 0.0 0.00 0.59 0.56 85 1013.2